Location: Caixon
(43.4106°N, 0.0273°E)
Time: 22:48:11
(UTC+00:00)

Cosmos 2082 Rocket - Pass Details

Date: 16 October 2021
Orbit: 834 x 853 km, 71.0° (Epoch: 07 December)

Event Time Altitude Azimuth Distance (km) Brightness Sun altitude
Exits shadow 05:09:20 15° 250° (WSW) 2,121 3.7 -12.7°
Maximum altitude 05:13:13 32° 306° (NW) 1,439 3.0 -12.0°
Drops below altitude 10° 05:18:17 10° 8° (N) 2,490 4.7 -11.1°
Sets 05:21:02 0° 19° (NNE) 3,428 5.6 -10.6°
